Weather in Verkhneolonetskiy

Russia / Republic of Karelia     61°27′29″N   33°15′14″E
temp.,
°C
wind,
m/s
gust,
m/s
humid.,
%
clouds,
%
prec.,
mm/h
press.,
hPa
HPBL,
m
28 july, wed
wed2800:00+14ese269547 0.1 1017118
03:00+14se299216 0.1 1016179
06:00+14se2689100 0.0 1015119
09:00+19se257488 0.0 1013225
12:00+21se136735 0.0 1012207
15:00+28s1330100 0.0 10092583
18:00+25sw1445100 0.0 1008702
21:00+20nne1163100 0.0 100711
29 july, thu
thu2900:00+16wnw3996100 2.7 1007232
03:00+15se119699 2.8 100518
06:00+16sse259788 0.7 1004173
09:00+18s239282 1.7 1002383
12:00+20wsw3482100 2.4 1001804
15:00+18wsw499296 4.3 1000631
18:00+19wsw41075100 0.6 999737
21:00+17sw268499 0.6 999224
30 july, fri
fri3000:00+14ssw27985 0.4 999147
03:00+13sw39978 0.4 999212
06:00+14sw3109432 0.0 998380
09:00+19wsw4766100 0.0 9991022
12:00+21sw6852100 0.0 9991577
15:00+22sw594264 0.0 9982176
18:00+21sw5105035 0.0 9981753
21:00+15ssw278329 0.1 998234
31 july, sat
sat3100:00+13s31088100 0.0 997241
03:00+12s3109594 0.2 996306
06:00+12sse28925 0.0 996220
09:00+16ssw467379 0.0 995889
12:00+18s4462100 0.3 9961288
15:00+17s347498 0.4 997837
18:00+18w356610 0.0 998905
21:00+16sw268452 0.1 999219
1 august, sun
sun100:00+12sw28972 0.0 1000185
03:00+12ssw22970 0.0 100037
06:00+13s279399 0.0 1000181
09:00+19s356693 0.1 999641
12:00+20ssw476870 0.3 9991051
15:00+19ssw488013 2.1 9981003
18:00+20sw59628 0.7 9981276
21:00+15ssw4119576 1.4 999523